Date String (YYYY-MM-DD hh:mm:ss) UTC,Instrument flags,absolute air pressure of the measurement (hPa),sample flow rate (lpm),inlet stack bypass flow (lpm),air temperature of the measurement (°C),ambient temperature measured by the external sensor (°C),aerosol sample conditioner tube jacket temperature (°C),OPC LED temperature (°C),internal box temperature (°C),relative humidity of the measurement (%),span deviation,mass concentration of particles derived from Lorenz-Mie calculation of OPC scattering (μg/m³),mass concentration of particles derived from Lorenz-Mie calculation of OPC scattering (μg/m³),mass concentration of particles derived from Lorenz-Mie calculation of OPC scattering (μg/m³)
DateTimeUTC,F1_M11,P_M11,Q1_M11,Q2_M11,T1_M11,T2_M11,T3_M11,T4_M11,T5_M11,U1_M11,ZSPAN_M11,X0_M11,X2_M11,X1_M11
2023-10-03 20:00:00,SystemResetWarning,0826.3,5.00,000.00,028.5,024.8,000.0,036.8,030.1,11.4,0000.0,0004.24,0001.62,0001.23
2023-10-03 20:01:00,SystemResetWarning,0826.2,5.01,000.00,028.4,024.8,000.0,036.8,029.9,11.5,0000.0,0004.43,0001.60,0001.23
2023-10-03 20:02:00,SystemResetWarning,0826.3,5.01,000.00,028.4,025.0,000.0,036.8,029.8,11.7,0000.0,0004.20,0001.59,0001.22
2023-10-03 20:03:00,SystemResetWarning,0826.2,5.00,000.00,028.3,025.4,000.0,036.8,029.8,11.7,0000.0,0004.20,0001.59,0001.22
2023-10-03 20:04:00,SystemResetWarning,0826.2,5.00,000.00,028.3,025.7,000.0,036.8,029.9,11.8,0000.0,0004.15,0001.58,0001.22
2023-10-03 20:05:00,SystemResetWarning,0826.2,5.00,000.00,028.3,026.0,000.0,036.8,029.9,11.5,0000.0,0004.21,0001.60,0001.23
2023-10-03 20:06:00,SystemResetWarning,0826.2,5.00,000.00,028.3,026.3,000.0,036.8,030.0,11.4,0000.0,0004.26,0001.61,0001.23
2023-10-03 20:07:00,SystemResetWarning,0826.2,4.99,000.00,028.3,026.5,000.0,036.8,030.0,11.7,0000.0,0004.25,0001.60,0001.24
2023-10-03 20:08:00,SystemResetWarning,0826.2,5.00,000.00,028.3,026.7,000.0,036.8,030.1,11.6,0000.0,0004.41,0001.64,0001.25
2023-10-03 20:09:00,SystemResetWarning,0826.2,5.00,000.00,028.4,026.8,000.0,036.8,030.1,11.3,0000.0,0004.57,0001.65,0001.25
2023-10-03 20:10:00,SystemResetWarning,0826.2,5.00,000.00,028.4,026.9,000.0,036.8,030.1,11.4,0000.0,0004.61,0001.64,0001.23
2023-10-03 20:11:00,SystemResetWarning,0826.2,5.00,000.00,028.4,027.1,000.0,036.8,030.1,11.6,0000.0,0003.68,0001.62,0001.23
2023-10-03 20:12:00,SystemResetWarning,0826.2,5.00,000.00,028.4,027.1,000.0,036.8,030.2,11.5,0000.0,0002.78,0001.59,0001.23
2023-10-03 20:13:00,SystemResetWarning,0826.1,5.00,000.00,028.5,027.2,000.0,036.9,030.2,11.4,0000.0,0002.76,0001.58,0001.24
2023-10-03 20:14:00,SystemResetWarning,0826.2,5.00,000.00,028.5,027.3,000.0,036.9,030.2,11.5,0000.0,0002.91,0001.58,0001.24
2023-10-03 20:15:00,SystemResetWarning,0826.2,5.00,000.00,028.5,027.3,000.0,036.9,030.2,11.5,0000.0,0003.90,0001.57,0001.24
2023-10-03 20:16:00,SystemResetWarning,0826.2,5.00,000.00,028.5,027.4,000.0,036.9,030.3,11.6,0000.0,0003.91,0001.56,0001.23
2023-10-03 20:17:00,SystemResetWarning,0826.1,5.00,000.00,028.6,027.4,000.0,036.9,030.3,11.6,0000.0,0004.03,0001.62,0001.24
2023-10-03 20:18:00,SystemResetWarning,0826.2,5.01,000.00,028.6,027.4,000.0,036.9,030.3,11.8,0000.0,0004.08,0001.64,0001.25
2023-10-03 20:19:00,SystemResetWarning,0826.2,4.98,000.00,028.6,027.5,000.0,037.0,030.3,12.0,0000.0,0003.99,0001.62,0001.25
2023-10-03 20:20:00,SystemResetWarning,0826.2,4.99,000.00,028.6,027.4,000.0,037.0,030.4,12.0,0000.0,0003.73,0001.59,0001.24
2023-10-03 20:21:00,SystemResetWarning,0826.2,5.00,000.00,028.6,025.9,000.0,036.9,030.3,12.1,0000.0,0003.68,0001.60,0001.25
2023-10-03 20:22:00,SystemResetWarning,0826.2,5.01,000.00,028.6,024.7,000.0,036.9,030.1,12.1,0000.0,0003.71,0001.62,0001.25
2023-10-03 20:23:00,SystemResetWarning,0826.2,5.01,000.00,028.5,024.7,000.0,036.8,030.0,11.8,0000.0,0003.78,0001.65,0001.26
2023-10-03 20:24:00,SystemResetWarning,0826.2,5.01,000.00,028.4,024.9,000.0,036.8,029.8,11.9,0000.0,0003.89,0001.68,0001.25
2023-10-03 20:25:00,SystemResetWarning,0826.1,4.99,000.00,028.3,025.3,000.0,036.8,029.8,11.9,0000.0,0003.90,0001.72,0001.26
2023-10-03 20:26:00,SystemResetWarning,0826.2,5.00,000.00,028.3,025.6,000.0,036.8,029.9,12.2,0000.0,0002.99,0001.74,0001.26
2023-10-03 20:27:00,SystemResetWarning,0826.2,5.00,000.00,028.3,025.9,000.0,036.8,029.9,12.1,0000.0,0003.02,0001.76,0001.27
2023-10-03 20:28:00,SystemResetWarning,0826.2,5.00,000.00,028.3,026.2,000.0,036.8,029.9,12.1,0000.0,0003.54,0001.74,0001.28
2023-10-03 20:29:00,SystemResetWarning,0826.2,5.00,000.00,028.3,026.4,000.0,036.8,030.0,12.2,0000.0,0003.88,0001.78,0001.28
2023-10-03 20:30:00,SystemResetWarning,0826.2,5.00,000.00,028.3,026.5,000.0,036.8,030.0,12.2,0000.0,0003.99,0001.81,0001.27
2023-10-03 20:31:00,SystemResetWarning,0826.2,5.00,000.00,028.3,026.7,000.0,036.8,030.0,12.3,0000.0,0004.01,0001.83,0001.28
2023-10-03 20:32:00,SystemResetWarning,0826.2,4.99,000.00,028.4,026.8,000.0,036.8,030.0,12.0,0000.0,0004.17,0001.83,0001.28
2023-10-03 20:33:00,SystemResetWarning,0826.2,4.99,000.00,028.4,026.9,000.0,036.8,030.1,12.0,0000.0,0004.40,0001.83,0001.28
2023-10-03 20:34:00,SystemResetWarning,0826.2,4.99,000.00,028.4,027.0,000.0,036.8,030.1,12.2,0000.0,0004.36,0001.81,0001.29
2023-10-03 20:35:00,SystemResetWarning,0826.3,5.01,000.00,028.4,027.1,000.0,036.8,030.1,12.3,0000.0,0004.31,0001.80,0001.30
2023-10-03 20:36:00,SystemResetWarning,0826.2,5.01,000.00,028.4,027.2,000.0,036.9,030.2,12.4,0000.0,0004.24,0001.78,0001.31
2023-10-03 20:37:00,SystemResetWarning,0826.2,4.99,000.00,028.5,027.2,000.0,036.9,030.2,12.4,0000.0,0004.13,0001.78,0001.30
2023-10-03 20:38:00,SystemResetWarning,0826.2,4.99,000.00,028.5,027.2,000.0,036.9,030.2,12.4,0000.0,0004.14,0001.79,0001.30
2023-10-03 20:39:00,SystemResetWarning,0826.2,5.00,000.00,028.5,027.3,000.0,036.9,030.2,12.5,0000.0,0003.79,0001.77,0001.30
2023-10-03 20:40:00,SystemResetWarning,0826.2,5.01,000.00,028.6,027.3,000.0,036.9,030.3,12.0,0000.0,0003.23,0001.75,0001.30
2023-10-03 20:41:00,SystemResetWarning,0826.2,5.01,000.00,028.6,027.4,000.0,036.9,030.3,12.1,0000.0,0003.33,0001.73,0001.30
2023-10-03 20:42:00,SystemResetWarning,0826.2,5.00,000.00,028.6,027.4,000.0,037.0,030.3,12.1,0000.0,0003.35,0001.74,0001.30
2023-10-03 20:43:00,SystemResetWarning,0826.3,4.99,000.00,028.6,027.4,000.0,037.0,030.3,12.3,0000.0,0003.17,0001.72,0001.29
2023-10-03 20:44:00,SystemResetWarning,0826.3,4.99,000.00,028.6,027.4,000.0,037.0,030.3,12.3,0000.0,0002.97,0001.72,0001.30
2023-10-03 20:45:00,SystemResetWarning,0826.4,5.01,000.00,028.7,027.4,000.0,037.0,030.3,12.3,0000.0,0002.88,0001.70,0001.28
2023-10-03 20:46:00,SystemResetWarning,0826.3,4.99,000.00,028.6,026.0,000.0,037.0,030.2,12.4,0000.0,0002.85,0001.69,0001.27
2023-10-03 20:47:00,SystemResetWarning,0826.3,5.02,000.00,028.6,024.7,000.0,036.9,030.1,12.5,0000.0,0002.80,0001.66,0001.26
2023-10-03 20:48:00,SystemResetWarning,0826.3,5.00,000.00,028.5,024.6,000.0,036.9,029.9,12.5,0000.0,0002.75,0001.65,0001.26
2023-10-03 20:49:00,SystemResetWarning,0826.3,4.99,000.00,028.4,024.9,000.0,036.9,029.8,12.5,0000.0,0002.67,0001.62,0001.25
2023-10-03 20:50:00,SystemResetWarning,0826.2,5.01,000.00,028.3,025.2,000.0,036.8,029.7,12.5,0000.0,0002.64,0001.61,0001.25
2023-10-03 20:51:00,SystemResetWarning,0826.3,5.00,000.00,028.3,025.5,000.0,036.8,029.8,12.4,0000.0,0002.58,0001.60,0001.24
2023-10-03 20:52:00,SystemResetWarning,0826.3,4.99,000.00,028.3,025.8,000.0,036.8,029.8,12.3,0000.0,0002.36,0001.59,0001.25
2023-10-03 20:53:00,SystemResetWarning,0826.4,5.00,000.00,028.2,026.0,000.0,036.8,029.8,12.2,0000.0,0002.25,0001.56,0001.25
2023-10-03 20:54:00,SystemResetWarning,0826.4,5.00,000.00,028.3,026.2,000.0,036.8,029.9,12.5,0000.0,0002.42,0001.56,0001.25
2023-10-03 20:55:00,SystemResetWarning,0826.4,4.99,000.00,028.3,026.4,000.0,036.8,029.9,12.8,0000.0,0002.47,0001.54,0001.24
2023-10-03 20:56:00,SystemResetWarning,0826.4,4.99,000.00,028.3,026.6,000.0,036.8,029.9,12.8,0000.0,0002.54,0001.57,0001.24
2023-10-03 20:57:00,SystemResetWarning,0826.5,5.00,000.00,028.3,026.7,000.0,036.8,030.0,12.8,0000.0,0002.64,0001.60,0001.25
2023-10-03 20:58:00,SystemResetWarning,0826.5,5.01,000.00,028.3,026.8,000.0,036.8,030.0,12.5,0000.0,0002.86,0001.62,0001.26
2023-10-03 20:59:00,SystemResetWarning,0826.5,5.00,000.00,028.3,026.8,000.0,036.8,030.0,12.3,0000.0,0003.17,0001.64,0001.25
